When you browse on this site, cookies collect data to enhance your experience and personalize the content and advertising you see.
Visit our Privacy Policy to learn more. By continuing to use the site, you agree to this use of cookies and data.
  • In Czech Republic
  • List of Countries
  • For 7 days
  • Water Temperature
  • Satellite Maps
  • Weather Map
  • Weather Widgets
  • user-avatar
    Login

    Hourly Weather West Bend

    Today, 20 April, Saturday

    Time Temperature Precipitation Wind Pressure Humidity
    00:00 +1°C° 0 mm 3 mps 733 mmHg 66%
    01:00 +1°C° 0 mm 3 mps 733 mmHg 68%
    02:00 0°C° 0 mm 4 mps 733 mmHg 69%
    03:00 -1°C° 0 mm 4 mps 733 mmHg 71%
    04:00 -1°C° 0 mm 4 mps 733 mmHg 71%
    05:00 +1°C° 0 mm 3 mps 733 mmHg 72%
    06:00 +1°C° 0 mm 3 mps 733 mmHg 72%
    07:00 +3°C° 0 mm 4 mps 733 mmHg 66%
    08:00 +6°C° 0 mm 4 mps 733 mmHg 59%
    09:00 +8°C° 0 mm 4 mps 733 mmHg 53%
    10:00 +11°C° 0 mm 4 mps 732 mmHg 47%
    11:00 +12°C° 0 mm 4 mps 732 mmHg 42%
    12:00 +14°C° 0 mm 4 mps 732 mmHg 36%
    13:00 +14°C° 0 mm 3 mps 732 mmHg 36%
    14:00 +16°C° 0 mm 3 mps 731 mmHg 35%
    15:00 +16°C° 0 mm 3 mps 731 mmHg 35%
    16:00 +15°C° 0 mm 2 mps 731 mmHg 40%
    17:00 +14°C° 0 mm 2 mps 731 mmHg 45%
    18:00 +12°C° 0 mm 1 mps 731 mmHg 51%
    19:00 +11°C° 0 mm 1 mps 731 mmHg 51%
    20:00 +10°C° 0 mm 1 mps 731 mmHg 52%
    21:00 +8°C° 0 mm 1 mps 731 mmHg 52%
    22:00 +8°C° 0 mm 1 mps 731 mmHg 53%
    23:00 +8°C° 0 mm 1 mps 731 mmHg 54%

    Tomorrow, 21 April, Sunday

    Time Temperature Precipitation Wind Pressure Humidity
    00:00 +7°C° 0 mm 2 mps 731 mmHg 56%
    01:00 +7°C° 0 mm 2 mps 731 mmHg 59%
    02:00 +7°C° 0 mm 2 mps 731 mmHg 62%
    03:00 +7°C° 0 mm 3 mps 732 mmHg 65%
    04:00 +7°C° 0 mm 3 mps 732 mmHg 68%
    05:00 +7°C° 0 mm 3 mps 732 mmHg 71%
    06:00 +7°C° 0 mm 3 mps 732 mmHg 74%
    07:00 +10°C° 0 mm 3 mps 733 mmHg 70%
    08:00 +13°C° 0 mm 3 mps 733 mmHg 65%
    09:00 +15°C° 0 mm 4 mps 734 mmHg 61%
    10:00 +18°C° 0 mm 4 mps 734 mmHg 59%
    11:00 +20°C° 0 mm 4 mps 734 mmHg 56%
    12:00 +22°C° 0 mm 5 mps 734 mmHg 54%
    13:00 +22°C° 0 mm 5 mps 734 mmHg 54%
    14:00 +22°C° 0 mm 5 mps 734 mmHg 55%
    15:00 +22°C° 0 mm 6 mps 733 mmHg 55%
    16:00 +21°C° 0 mm 5 mps 733 mmHg 60%
    17:00 +20°C° 0 mm 5 mps 734 mmHg 64%
    18:00 +18°C° 0 mm 4 mps 734 mmHg 69%
    19:00 +18°C° 0 mm 4 mps 734 mmHg 70%
    20:00 +17°C° 0 mm 4 mps 734 mmHg 72%
    21:00 +16°C° 0 mm 3 mps 735 mmHg 73%
    22:00 +15°C° 0 mm 4 mps 735 mmHg 76%
    23:00 +14°C° 0 mm 4 mps 735 mmHg 78%

    Day after tomorrow, 22 April, Monday

    Time Temperature Precipitation Wind Pressure Humidity
    00:00 +14°C° 0 mm 4 mps 735 mmHg 81%
    01:00 +14°C° 0.1 mm 4 mps 735 mmHg 82%
    02:00 +14°C° 0.1 mm 4 mps 735 mmHg 83%
    03:00 +14°C° 0.1 mm 4 mps 734 mmHg 84%
    04:00 +14°C° 0.8 mm 3 mps 735 mmHg 86%
    05:00 +13°C° 0.8 mm 3 mps 735 mmHg 89%
    06:00 +13°C° 0.8 mm 3 mps 735 mmHg 91%
    07:00 +16°C° 0 mm 3 mps 735 mmHg 87%
    08:00 +17°C° 0 mm 3 mps 735 mmHg 82%
    09:00 +19°C° 0 mm 3 mps 735 mmHg 78%
    10:00 +20°C° 0 mm 3 mps 735 mmHg 73%
    11:00 +22°C° 0 mm 4 mps 735 mmHg 68%
    12:00 +23°C° 0 mm 4 mps 735 mmHg 64%
    13:00 +23°C° 0.8 mm 5 mps 734 mmHg 65%
    14:00 +23°C° 0.8 mm 5 mps 734 mmHg 66%
    15:00 +22°C° 0.8 mm 5 mps 733 mmHg 67%
    16:00 +21°C° 0.3 mm 5 mps 733 mmHg 71%
    17:00 +20°C° 0.3 mm 4 mps 733 mmHg 75%
    18:00 +19°C° 0.3 mm 4 mps 733 mmHg 78%
    19:00 +19°C° 0.2 mm 4 mps 733 mmHg 82%
    20:00 +18°C° 0.2 mm 4 mps 733 mmHg 85%
    21:00 +17°C° 0.2 mm 4 mps 733 mmHg 88%
    22:00 +17°C° 0.1 mm 3 mps 733 mmHg 89%
    23:00 +17°C° 0.1 mm 3 mps 732 mmHg 91%

    23 April, Tuesday

    Time Temperature Precipitation Wind Pressure Humidity
    00:00 +17°C° 0.1 mm 2 mps 732 mmHg 92%
    01:00 +16°C° 0.1 mm 2 mps 732 mmHg 94%
    02:00 +16°C° 0.1 mm 2 mps 732 mmHg 95%
    03:00 +15°C° 0.1 mm 1 mps 731 mmHg 96%
    04:00 +14°C° 0.6 mm 2 mps 731 mmHg 97%
    05:00 +14°C° 0.6 mm 2 mps 731 mmHg 97%
    06:00 +13°C° 0.6 mm 2 mps 731 mmHg 97%
    07:00 +11°C° 0.3 mm 3 mps 732 mmHg 95%
    08:00 +8°C° 0.3 mm 5 mps 732 mmHg 94%
    09:00 +7°C° 0.3 mm 6 mps 732 mmHg 92%
    10:00 +7°C° 0.1 mm 5 mps 733 mmHg 91%
    11:00 +7°C° 0.1 mm 5 mps 733 mmHg 90%
    12:00 +7°C° 0.1 mm 5 mps 734 mmHg 90%
    13:00 +8°C° 0 mm 5 mps 734 mmHg 87%
    14:00 +8°C° 0 mm 4 mps 734 mmHg 85%
    15:00 +10°C° 0 mm 4 mps 734 mmHg 83%
    16:00 +10°C° 0.1 mm 4 mps 734 mmHg 84%
    17:00 +8°C° 0.1 mm 4 mps 735 mmHg 85%
    18:00 +9°C° 0.1 mm 3 mps 735 mmHg 86%
    19:00 +8°C° 0 mm 3 mps 735 mmHg 86%
    20:00 +7°C° 0 mm 3 mps 736 mmHg 86%
    21:00 +5°C° 0 mm 3 mps 736 mmHg 86%
    22:00 +5°C° 0 mm 4 mps 736 mmHg 85%
    23:00 +5°C° 0 mm 4 mps 736 mmHg 83%

    24 April, Wednesday

    Time Temperature Precipitation Wind Pressure Humidity
    00:00 +4°C° 0 mm 4 mps 736 mmHg 81%
    01:00 +4°C° 0 mm 4 mps 735 mmHg 81%
    02:00 +3°C° 0 mm 4 mps 735 mmHg 82%
    03:00 +1°C° 0 mm 4 mps 735 mmHg 82%
    04:00 +1°C° 0 mm 4 mps 736 mmHg 84%
    05:00 +2°C° 0 mm 3 mps 736 mmHg 87%
    06:00 +2°C° 0 mm 3 mps 736 mmHg 89%
    07:00 +4°C° 0 mm 3 mps 736 mmHg 83%
    08:00 +6°C° 0 mm 4 mps 736 mmHg 77%
    09:00 +8°C° 0 mm 4 mps 737 mmHg 71%
    10:00 +10°C° 0 mm 4 mps 736 mmHg 66%
    11:00 +11°C° 0 mm 3 mps 736 mmHg 61%
    12:00 +12°C° 0 mm 3 mps 735 mmHg 56%
    13:00 +13°C° 0 mm 3 mps 735 mmHg 55%
    14:00 +13°C° 0 mm 3 mps 735 mmHg 54%
    15:00 +14°C° 0 mm 2 mps 734 mmHg 53%
    16:00 +13°C° 0 mm 2 mps 734 mmHg 58%
    17:00 +12°C° 0 mm 2 mps 734 mmHg 63%
    18:00 +10°C° 0 mm 2 mps 734 mmHg 67%
    19:00 +10°C° 0 mm 1 mps 734 mmHg 69%
    20:00 +8°C° 0 mm 1 mps 734 mmHg 70%
    21:00 +7°C° 0 mm 1 mps 734 mmHg 72%
    22:00 +7°C° 0 mm 1 mps 734 mmHg 71%
    23:00 +6°C° 0 mm 1 mps 734 mmHg 70%

    25 April, Thursday

    Time Temperature Precipitation Wind Pressure Humidity
    00:00 +6°C° 0 mm 1 mps 734 mmHg 70%
    01:00 +5°C° 0 mm 2 mps 734 mmHg 70%
    02:00 +5°C° 0 mm 2 mps 733 mmHg 70%
    03:00 +5°C° 0 mm 2 mps 733 mmHg 70%
    04:00 +6°C° 0 mm 2 mps 733 mmHg 71%
    05:00 +6°C° 0 mm 2 mps 733 mmHg 72%
    06:00 +7°C° 0 mm 2 mps 733 mmHg 73%
    07:00 +9°C° 0 mm 3 mps 733 mmHg 71%
    08:00 +12°C° 0 mm 3 mps 733 mmHg 68%
    09:00 +14°C° 0 mm 4 mps 733 mmHg 66%
    10:00 +17°C° 0 mm 4 mps 732 mmHg 62%
    11:00 +18°C° 0 mm 4 mps 732 mmHg 58%
    12:00 +20°C° 0 mm 5 mps 732 mmHg 54%
    13:00 +19°C° 0.1 mm 4 mps 731 mmHg 58%
    14:00 +19°C° 0.1 mm 4 mps 731 mmHg 62%
    15:00 +18°C° 0.1 mm 4 mps 731 mmHg 65%
    16:00 +18°C° 0.7 mm 4 mps 731 mmHg 70%
    17:00 +17°C° 0.7 mm 4 mps 731 mmHg 74%
    18:00 +17°C° 0.7 mm 4 mps 731 mmHg 78%
    19:00 +14°C° 0.1 mm 4 mps 731 mmHg 83%
    20:00 +12°C° 0.1 mm 4 mps 732 mmHg 88%
    21:00 +9°C° 0.1 mm 5 mps 732 mmHg 92%
    22:00 +10°C° 0 mm 4 mps 733 mmHg 93%
    23:00 +8°C° 0 mm 4 mps 733 mmHg 93%
    Show more